"Date","Average Accumulated Water Year PPT (in)","Average SWE (in)"
10/01/1981,0.225,0.000
10/02/1981,0.735,0.000
10/03/1981,0.884,0.000
10/04/1981,0.943,0.000
10/05/1981,0.943,0.000
10/06/1981,0.944,0.000
10/07/1981,1.535,0.000
10/08/1981,1.781,0.000
10/09/1981,1.847,0.000
10/10/1981,1.852,0.000
10/11/1981,1.852,0.000
10/12/1981,1.852,0.000
10/13/1981,1.852,0.000
10/14/1981,1.852,0.000
10/15/1981,1.852,0.000
10/16/1981,1.853,0.000
10/17/1981,1.856,0.000
10/18/1981,1.869,0.000
10/19/1981,2.140,0.000
10/20/1981,2.167,0.002
10/21/1981,2.167,0.000
10/22/1981,2.167,0.000
10/23/1981,2.307,0.000
10/24/1981,2.729,0.000
10/25/1981,2.730,0.000
10/26/1981,2.842,0.000
10/27/1981,3.833,0.000
10/28/1981,5.287,0.000
10/29/1981,5.292,0.000
10/30/1981,5.292,0.000
10/31/1981,5.292,0.000
11/01/1981,5.292,0.000
11/02/1981,5.292,0.000
11/03/1981,5.292,0.000
11/04/1981,5.292,0.000
11/05/1981,5.292,0.000
11/06/1981,5.656,0.000
11/07/1981,5.839,0.023
11/08/1981,5.869,0.042
11/09/1981,5.871,0.006
11/10/1981,5.873,0.006
11/11/1981,5.873,0.006
11/12/1981,5.873,0.005
11/13/1981,5.873,0.005
11/14/1981,5.873,0.004
11/15/1981,5.890,0.002
11/16/1981,6.584,0.000
11/17/1981,6.758,0.000
11/18/1981,6.796,0.000
11/19/1981,6.828,0.000
11/20/1981,7.150,0.000
11/21/1981,7.252,0.001
11/22/1981,7.297,0.023
11/23/1981,7.318,0.041
11/24/1981,7.319,0.041
11/25/1981,7.319,0.041
11/26/1981,7.319,0.041
11/27/1981,7.382,0.045
11/28/1981,7.383,0.017
11/29/1981,7.417,0.040
11/30/1981,7.422,0.044
12/01/1981,7.424,0.045
12/02/1981,7.832,0.204
12/03/1981,7.832,0.161
12/04/1981,7.842,0.164
12/05/1981,7.871,0.171
12/06/1981,7.899,0.195
12/07/1981,7.899,0.195
12/08/1981,8.005,0.226
12/09/1981,8.286,0.514
12/10/1981,8.355,0.591
12/11/1981,8.378,0.618
12/12/1981,8.426,0.670
12/13/1981,8.426,0.670
12/14/1981,8.426,0.670
12/15/1981,8.585,0.885
12/16/1981,8.763,1.017
12/17/1981,8.775,1.032
12/18/1981,8.936,1.223
12/19/1981,8.944,1.230
12/20/1981,8.977,1.266
12/21/1981,8.978,1.266
12/22/1981,9.046,1.322
12/23/1981,9.534,1.449
12/24/1981,9.547,1.111
12/25/1981,9.547,1.105
12/26/1981,9.547,1.105
12/27/1981,9.549,1.106
12/28/1981,9.646,1.195
12/29/1981,9.686,1.215
12/30/1981,9.696,1.224
12/31/1981,9.698,1.225
01/01/1982,9.858,1.305
01/02/1982,9.961,1.323
01/03/1982,9.965,1.326
01/04/1982,10.422,1.385
01/05/1982,10.577,1.278
01/06/1982,10.591,1.288
01/07/1982,10.705,1.339
01/08/1982,10.711,1.343
01/09/1982,10.738,1.366
01/10/1982,10.776,1.405
01/11/1982,10.778,1.407
01/12/1982,10.805,1.429
01/13/1982,10.816,1.438
01/14/1982,11.005,1.744
01/15/1982,11.008,1.746
01/16/1982,11.026,1.765
01/17/1982,11.065,1.796
01/18/1982,11.070,1.801
01/19/1982,11.070,1.801
01/20/1982,11.077,1.805
01/21/1982,11.128,1.860
01/22/1982,11.149,1.883
01/23/1982,11.480,2.277
01/24/1982,11.775,2.436
01/25/1982,11.792,2.454
01/26/1982,11.794,2.456
01/27/1982,11.794,2.456
01/28/1982,11.795,2.456
01/29/1982,11.800,2.465
01/30/1982,11.807,2.470
01/31/1982,11.991,2.575
02/01/1982,12.918,2.394
02/02/1982,12.927,2.400
02/03/1982,13.331,2.522
02/04/1982,13.770,2.406
02/05/1982,13.771,2.406
02/06/1982,13.777,2.410
02/07/1982,13.777,2.410
02/08/1982,13.784,2.417
02/09/1982,13.954,2.555
02/10/1982,14.052,2.628
02/11/1982,14.052,2.628
02/12/1982,14.053,2.628
02/13/1982,14.075,2.642
02/14/1982,14.112,2.666
02/15/1982,14.114,2.667
02/16/1982,14.114,2.337
02/17/1982,14.114,2.310
02/18/1982,14.118,2.315
02/19/1982,14.203,2.403
02/20/1982,14.417,2.684
02/21/1982,14.543,2.743
02/22/1982,14.697,2.880
02/23/1982,14.698,2.874
02/24/1982,14.704,2.864
02/25/1982,14.846,3.061
02/26/1982,14.847,3.061
02/27/1982,14.847,3.061
02/28/1982,14.847,3.061
03/01/1982,14.847,3.062
03/02/1982,14.885,3.090
03/03/1982,14.905,3.098
03/04/1982,14.908,3.100
03/05/1982,15.070,3.176
03/06/1982,15.073,3.178
03/07/1982,15.360,3.348
03/08/1982,15.830,3.904
03/09/1982,15.866,3.925
03/10/1982,15.934,3.971
03/11/1982,15.939,3.972
03/12/1982,16.002,3.275
03/13/1982,16.011,2.989
03/14/1982,16.115,2.680
03/15/1982,16.116,2.591
03/16/1982,16.122,2.563
03/17/1982,16.398,2.555
03/18/1982,16.506,2.559
03/19/1982,16.512,2.448
03/20/1982,16.512,2.433
03/21/1982,16.516,2.314
03/22/1982,16.549,2.220
03/23/1982,16.553,2.189
03/24/1982,16.553,2.130
03/25/1982,16.561,1.963
03/26/1982,16.879,1.787
03/27/1982,16.913,1.818
03/28/1982,16.914,1.818
03/29/1982,16.914,1.819
03/30/1982,16.916,1.694
03/31/1982,17.028,1.248
04/01/1982,17.285,0.971
04/02/1982,17.287,0.919
04/03/1982,17.331,0.868
04/04/1982,17.958,0.795
04/05/1982,17.996,0.829
04/06/1982,18.331,1.186
04/07/1982,18.586,1.491
04/08/1982,18.586,1.491
04/09/1982,18.587,1.491
04/10/1982,18.621,1.502
04/11/1982,18.625,1.278
04/12/1982,18.661,1.169
04/13/1982,18.668,0.951
04/14/1982,18.722,0.797
04/15/1982,18.722,0.745
04/16/1982,18.722,0.541
04/17/1982,18.732,0.199
04/18/1982,19.386,0.076
04/19/1982,19.387,0.059
04/20/1982,19.389,0.016
04/21/1982,19.481,0.003
04/22/1982,19.481,0.002
04/23/1982,19.481,0.002
04/24/1982,19.481,0.000
04/25/1982,19.481,0.000
04/26/1982,19.486,0.000
04/27/1982,19.762,0.000
04/28/1982,19.827,0.000
04/29/1982,19.827,0.000
04/30/1982,19.827,0.000
05/01/1982,19.827,0.000
05/02/1982,19.828,0.000
05/03/1982,19.834,0.000
05/04/1982,19.837,0.000
05/05/1982,19.837,0.000
05/06/1982,19.837,0.000
05/07/1982,19.837,0.000
05/08/1982,19.964,0.000
05/09/1982,20.286,0.000
05/10/1982,20.411,0.000
05/11/1982,20.411,0.000
05/12/1982,20.412,0.000
05/13/1982,20.501,0.000
05/14/1982,20.501,0.000
05/15/1982,20.501,0.000
05/16/1982,20.501,0.000
05/17/1982,20.514,0.000
05/18/1982,20.557,0.000
05/19/1982,20.571,0.000
05/20/1982,20.865,0.000
05/21/1982,21.007,0.000
05/22/1982,21.049,0.000
05/23/1982,21.635,0.000
05/24/1982,22.043,0.000
05/25/1982,22.111,0.000
05/26/1982,22.111,0.000
05/27/1982,22.112,0.000
05/28/1982,22.165,0.000
05/29/1982,22.804,0.000
05/30/1982,22.847,0.000
05/31/1982,23.232,0.000
06/01/1982,23.333,0.000
06/02/1982,23.979,0.000
06/03/1982,23.986,0.000
06/04/1982,24.454,0.000
06/05/1982,24.567,0.000
06/06/1982,25.619,0.000
06/07/1982,25.782,0.000
06/08/1982,25.783,0.000
06/09/1982,25.783,0.000
06/10/1982,25.784,0.000
06/11/1982,25.882,0.000
06/12/1982,25.898,0.000
06/13/1982,26.011,0.000
06/14/1982,26.389,0.000
06/15/1982,26.389,0.000
06/16/1982,26.438,0.000
06/17/1982,27.375,0.000
06/18/1982,27.376,0.000
06/19/1982,27.380,0.000
06/20/1982,27.457,0.000
06/21/1982,27.500,0.000
06/22/1982,27.526,0.000
06/23/1982,27.794,0.000
06/24/1982,27.796,0.000
06/25/1982,27.798,0.000
06/26/1982,27.810,0.000
06/27/1982,27.840,0.000
06/28/1982,28.000,0.000
06/29/1982,28.605,0.000
06/30/1982,29.461,0.000
07/01/1982,29.468,0.000
07/02/1982,29.468,0.000
07/03/1982,29.471,0.000
07/04/1982,29.610,0.000
07/05/1982,29.610,0.000
07/06/1982,29.610,0.000
07/07/1982,29.612,0.000
07/08/1982,29.794,0.000
07/09/1982,29.794,0.000
07/10/1982,29.794,0.000
07/11/1982,29.798,0.000
07/12/1982,30.122,0.000
07/13/1982,30.122,0.000
07/14/1982,30.123,0.000
07/15/1982,30.223,0.000
07/16/1982,30.223,0.000
07/17/1982,30.226,0.000
07/18/1982,30.341,0.000
07/19/1982,30.525,0.000
07/20/1982,30.933,0.000
07/21/1982,31.239,0.000
07/22/1982,31.239,0.000
07/23/1982,31.239,0.000
07/24/1982,31.240,0.000
07/25/1982,31.240,0.000
07/26/1982,31.240,0.000
07/27/1982,31.271,0.000
07/28/1982,31.950,0.000
07/29/1982,32.281,0.000
07/30/1982,32.281,0.000
07/31/1982,32.283,0.000
08/01/1982,32.423,0.000
08/02/1982,32.431,0.000
08/03/1982,32.570,0.000
08/04/1982,32.580,0.000
08/05/1982,32.680,0.000
08/06/1982,32.680,0.000
08/07/1982,32.680,0.000
08/08/1982,32.688,0.000
08/09/1982,33.124,0.000
08/10/1982,33.324,0.000
08/11/1982,33.345,0.000
08/12/1982,33.353,0.000
08/13/1982,33.358,0.000
08/14/1982,33.376,0.000
08/15/1982,33.376,0.000
08/16/1982,33.376,0.000
08/17/1982,33.378,0.000
08/18/1982,33.591,0.000
08/19/1982,33.593,0.000
08/20/1982,33.626,0.000
08/21/1982,33.813,0.000
08/22/1982,33.817,0.000
08/23/1982,33.834,0.000
08/24/1982,33.893,0.000
08/25/1982,34.224,0.000
08/26/1982,34.415,0.000
08/27/1982,34.416,0.000
08/28/1982,34.429,0.000
08/29/1982,34.430,0.000
08/30/1982,34.430,0.000
08/31/1982,34.432,0.000
09/01/1982,34.589,0.000
09/02/1982,34.644,0.000
09/03/1982,34.953,0.000
09/04/1982,34.972,0.000
09/05/1982,34.972,0.000
09/06/1982,34.972,0.000
09/07/1982,34.979,0.000
09/08/1982,34.987,0.000
09/09/1982,34.995,0.000
09/10/1982,34.995,0.000
09/11/1982,34.995,0.000
09/12/1982,34.995,0.000
09/13/1982,34.995,0.000
09/14/1982,34.995,0.000
09/15/1982,35.160,0.000
09/16/1982,35.288,0.000
09/17/1982,35.289,0.000
09/18/1982,35.293,0.000
09/19/1982,35.297,0.000
09/20/1982,35.305,0.000
09/21/1982,35.349,0.000
09/22/1982,35.368,0.000
09/23/1982,35.833,0.000
09/24/1982,36.135,0.000
09/25/1982,36.135,0.000
09/26/1982,36.141,0.000
09/27/1982,36.827,0.000
09/28/1982,36.892,0.000
09/29/1982,36.900,0.000
09/30/1982,36.900,0.000
10/01/1982,0.000,0.000
10/02/1982,0.001,0.000
10/03/1982,0.001,0.000
10/04/1982,0.001,0.000
10/05/1982,0.001,0.000
10/06/1982,0.001,0.000
10/07/1982,0.001,0.000
10/08/1982,0.105,0.000
10/09/1982,0.132,0.000
10/10/1982,0.135,0.000
10/11/1982,0.137,0.000
10/12/1982,0.218,0.000
10/13/1982,0.265,0.000
10/14/1982,0.498,0.000
10/15/1982,0.586,0.000
10/16/1982,0.675,0.000
10/17/1982,0.782,0.000
10/18/1982,0.787,0.000
10/19/1982,0.787,0.000
10/20/1982,0.792,0.000
10/21/1982,0.972,0.000
10/22/1982,0.974,0.000
10/23/1982,0.974,0.000
10/24/1982,0.974,0.000
10/25/1982,0.975,0.000
10/26/1982,0.997,0.000
10/27/1982,0.997,0.000
10/28/1982,0.997,0.000
10/29/1982,0.997,0.000
10/30/1982,0.997,0.000
10/31/1982,1.024,0.000
11/01/1982,1.293,0.000
11/02/1982,1.322,0.000
11/03/1982,1.328,0.000
11/04/1982,1.678,0.000
11/05/1982,2.865,0.000
11/06/1982,2.873,0.001
11/07/1982,2.873,0.000
11/08/1982,2.873,0.000
11/09/1982,2.873,0.000
11/10/1982,2.873,0.000
11/11/1982,2.890,0.001
11/12/1982,3.070,0.000
11/13/1982,3.419,0.000
11/14/1982,3.420,0.000
11/15/1982,3.425,0.002
11/16/1982,3.427,0.003
11/17/1982,3.427,0.003
11/18/1982,3.428,0.000
11/19/1982,3.430,0.000
11/20/1982,3.433,0.000
11/21/1982,3.668,0.000
11/22/1982,3.870,0.000
11/23/1982,4.291,0.000
11/24/1982,4.375,0.000
11/25/1982,4.395,0.009
11/26/1982,4.401,0.014
11/27/1982,4.547,0.125
11/28/1982,4.558,0.130
11/29/1982,4.928,0.182
11/30/1982,4.966,0.090
12/01/1982,4.966,0.044
12/02/1982,4.980,0.005
12/03/1982,4.980,0.000
12/04/1982,4.985,0.000
12/05/1982,5.002,0.000
12/06/1982,5.088,0.000
12/07/1982,5.094,0.000
12/08/1982,5.097,0.000
12/09/1982,5.142,0.030
12/10/1982,5.148,0.035
12/11/1982,5.181,0.064
12/12/1982,5.187,0.069
12/13/1982,5.197,0.077
12/14/1982,5.233,0.111
12/15/1982,5.248,0.102
12/16/1982,5.804,0.037
12/17/1982,5.883,0.031
12/18/1982,5.884,0.032
12/19/1982,5.885,0.033
12/20/1982,6.003,0.144
12/21/1982,6.167,0.275
12/22/1982,6.209,0.311
12/23/1982,6.382,0.461
12/24/1982,6.457,0.404
12/25/1982,6.488,0.218
12/26/1982,6.643,0.053
12/27/1982,6.646,0.045
12/28/1982,6.818,0.040
12/29/1982,6.826,0.009
12/30/1982,6.831,0.013
12/31/1982,6.831,0.013
01/01/1983,6.831,0.013
01/02/1983,6.831,0.013
01/03/1983,6.832,0.014
01/04/1983,6.841,0.021
01/05/1983,6.841,0.021
01/06/1983,6.846,0.023
01/07/1983,6.847,0.023
01/08/1983,6.863,0.022
01/09/1983,6.863,0.022
01/10/1983,6.914,0.042
01/11/1983,7.223,0.018
01/12/1983,7.239,0.014
01/13/1983,7.245,0.020
01/14/1983,7.248,0.022
01/15/1983,7.445,0.209
01/16/1983,7.978,0.722
01/17/1983,8.012,0.754
01/18/1983,8.022,0.763
01/19/1983,8.025,0.766
01/20/1983,8.027,0.767
01/21/1983,8.027,0.767
01/22/1983,8.034,0.773
01/23/1983,8.213,0.893
01/24/1983,8.646,0.833
01/25/1983,8.647,0.805
01/26/1983,8.658,0.821
01/27/1983,8.684,0.851
01/28/1983,8.685,0.852
01/29/1983,8.685,0.852
01/30/1983,8.691,0.848
01/31/1983,8.809,0.873
02/01/1983,8.811,0.868
02/02/1983,8.856,0.868
02/03/1983,9.574,0.546
02/04/1983,9.717,0.553
02/05/1983,9.742,0.583
02/06/1983,9.743,0.584
02/07/1983,9.861,0.768
02/08/1983,10.106,1.169
02/09/1983,10.122,1.179
02/10/1983,10.122,1.179
02/11/1983,10.122,1.179
02/12/1983,10.327,1.408
02/13/1983,10.327,1.408
02/14/1983,10.328,1.408
02/15/1983,10.328,1.376
02/16/1983,10.328,1.363
02/17/1983,10.329,1.095
02/18/1983,10.329,0.892
02/19/1983,10.329,0.879
02/20/1983,10.329,0.820
02/21/1983,10.329,0.704
02/22/1983,10.329,0.584
02/23/1983,10.329,0.496
02/24/1983,10.330,0.477
02/25/1983,10.359,0.501
02/26/1983,10.371,0.512
02/27/1983,10.372,0.513
02/28/1983,10.372,0.497
03/01/1983,10.372,0.415
03/02/1983,10.391,0.327
03/03/1983,10.391,0.257
03/04/1983,10.407,0.224
03/05/1983,10.476,0.160
03/06/1983,10.479,0.104
03/07/1983,10.653,0.061
03/08/1983,10.665,0.039
03/09/1983,10.799,0.034
03/10/1983,10.932,0.027
03/11/1983,11.510,0.236
03/12/1983,11.548,0.252
03/13/1983,11.628,0.335
03/14/1983,11.628,0.257
03/15/1983,11.628,0.137
03/16/1983,11.629,0.095
03/17/1983,11.629,0.053
03/18/1983,11.644,0.026
03/19/1983,11.963,0.012
03/20/1983,12.102,0.007
03/21/1983,12.196,0.014
03/22/1983,12.654,0.051
03/23/1983,12.687,0.078
03/24/1983,12.692,0.082
03/25/1983,12.692,0.082
03/26/1983,12.692,0.082
03/27/1983,12.711,0.081
03/28/1983,13.101,0.172
03/29/1983,13.177,0.172
03/30/1983,13.177,0.172
03/31/1983,13.177,0.172
04/01/1983,13.177,0.160
04/02/1983,13.194,0.109
04/03/1983,13.582,0.038
04/04/1983,13.661,0.009
04/05/1983,13.665,0.004
04/06/1983,13.666,0.003
04/07/1983,13.686,0.002
04/08/1983,14.059,0.000
04/09/1983,14.215,0.000
04/10/1983,14.606,0.000
04/11/1983,14.971,0.000
04/12/1983,15.077,0.000
04/13/1983,15.082,0.000
04/14/1983,15.082,0.000
04/15/1983,15.355,0.000
04/16/1983,17.460,0.325
04/17/1983,17.576,0.394
04/18/1983,17.626,0.319
04/19/1983,17.731,0.352
04/20/1983,18.447,1.072
04/21/1983,18.640,1.106
04/22/1983,18.646,0.893
04/23/1983,18.647,0.599
04/24/1983,18.836,0.264
04/25/1983,19.845,0.438
04/26/1983,20.002,0.410
04/27/1983,20.003,0.200
04/28/1983,20.007,0.044
04/29/1983,20.041,0.002
04/30/1983,20.575,0.000
05/01/1983,21.084,0.000
05/02/1983,21.517,0.000
05/03/1983,21.715,0.000
05/04/1983,21.942,0.000
05/05/1983,21.942,0.000
05/06/1983,21.957,0.000
05/07/1983,21.957,0.000
05/08/1983,21.968,0.000
05/09/1983,22.619,0.000
05/10/1983,22.619,0.000
05/11/1983,22.620,0.000
05/12/1983,22.620,0.000
05/13/1983,22.620,0.000
05/14/1983,22.621,0.000
05/15/1983,22.730,0.000
05/16/1983,23.107,0.000
05/17/1983,23.184,0.000
05/18/1983,23.184,0.000
05/19/1983,23.186,0.000
05/20/1983,23.448,0.000
05/21/1983,23.468,0.000
05/22/1983,23.473,0.000
05/23/1983,23.981,0.000
05/24/1983,24.167,0.000
05/25/1983,24.167,0.000
05/26/1983,24.214,0.000
05/27/1983,24.308,0.000
05/28/1983,24.311,0.000
05/29/1983,24.412,0.000
05/30/1983,24.618,0.000
05/31/1983,24.741,0.000
06/01/1983,24.959,0.000
06/02/1983,24.968,0.000
06/03/1983,24.974,0.000
06/04/1983,25.376,0.000
06/05/1983,25.385,0.000
06/06/1983,25.408,0.000
06/07/1983,25.962,0.000
06/08/1983,25.962,0.000
06/09/1983,25.962,0.000
06/10/1983,25.962,0.000
06/11/1983,26.044,0.000
06/12/1983,26.045,0.000
06/13/1983,26.045,0.000
06/14/1983,26.048,0.000
06/15/1983,26.051,0.000
06/16/1983,26.053,0.000
06/17/1983,26.337,0.000
06/18/1983,26.813,0.000
06/19/1983,27.116,0.000
06/20/1983,27.310,0.000
06/21/1983,27.445,0.000
06/22/1983,27.445,0.000
06/23/1983,27.445,0.000
06/24/1983,27.448,0.000
06/25/1983,27.450,0.000
06/26/1983,27.458,0.000
06/27/1983,27.473,0.000
06/28/1983,28.299,0.000
06/29/1983,29.489,0.000
06/30/1983,29.489,0.000
07/01/1983,29.489,0.000
07/02/1983,29.496,0.000
07/03/1983,29.503,0.000
07/04/1983,29.519,0.000
07/05/1983,29.530,0.000
07/06/1983,29.542,0.000
07/07/1983,29.542,0.000
07/08/1983,29.542,0.000
07/09/1983,29.570,0.000
07/10/1983,29.570,0.000
07/11/1983,29.570,0.000
07/12/1983,29.574,0.000
07/13/1983,29.574,0.000
07/14/1983,29.574,0.000
07/15/1983,29.578,0.000
07/16/1983,29.674,0.000
07/17/1983,29.674,0.000
07/18/1983,29.684,0.000
07/19/1983,29.684,0.000
07/20/1983,29.742,0.000
07/21/1983,29.793,0.000
07/22/1983,30.176,0.000
07/23/1983,30.187,0.000
07/24/1983,30.618,0.000
07/25/1983,30.773,0.000
07/26/1983,30.773,0.000
07/27/1983,30.773,0.000
07/28/1983,30.774,0.000
07/29/1983,30.808,0.000
07/30/1983,30.965,0.000
07/31/1983,31.119,0.000
08/01/1983,31.285,0.000
08/02/1983,31.829,0.000
08/03/1983,31.832,0.000
08/04/1983,31.836,0.000
08/05/1983,31.884,0.000
08/06/1983,31.942,0.000
08/07/1983,31.955,0.000
08/08/1983,31.959,0.000
08/09/1983,32.038,0.000
08/10/1983,32.038,0.000
08/11/1983,32.143,0.000
08/12/1983,33.098,0.000
08/13/1983,33.360,0.000
08/14/1983,33.360,0.000
08/15/1983,33.361,0.000
08/16/1983,33.361,0.000
08/17/1983,33.365,0.000
08/18/1983,33.647,0.000
08/19/1983,33.689,0.000
08/20/1983,33.693,0.000
08/21/1983,33.693,0.000
08/22/1983,33.702,0.000
08/23/1983,33.785,0.000
08/24/1983,33.785,0.000
08/25/1983,33.785,0.000
08/26/1983,33.788,0.000
08/27/1983,33.965,0.000
08/28/1983,33.986,0.000
08/29/1983,34.151,0.000
08/30/1983,34.227,0.000
08/31/1983,34.602,0.000
09/01/1983,34.775,0.000
09/02/1983,34.775,0.000
09/03/1983,34.775,0.000
09/04/1983,34.775,0.000
09/05/1983,34.775,0.000
09/06/1983,34.795,0.000
09/07/1983,34.845,0.000
09/08/1983,34.845,0.000
09/09/1983,34.846,0.000
09/10/1983,34.897,0.000
09/11/1983,34.901,0.000
09/12/1983,34.926,0.000
09/13/1983,34.963,0.000
09/14/1983,34.980,0.000
09/15/1983,34.980,0.000
09/16/1983,34.981,0.000
09/17/1983,35.042,0.000
09/18/1983,35.051,0.000
09/19/1983,35.061,0.000
09/20/1983,35.109,0.000
09/21/1983,35.146,0.000
09/22/1983,36.449,0.000
09/23/1983,36.454,0.000
09/24/1983,36.487,0.000
09/25/1983,36.487,0.000
09/26/1983,36.490,0.000
09/27/1983,36.491,0.000
09/28/1983,36.491,0.000
09/29/1983,36.492,0.000
09/30/1983,36.492,0.000
10/01/1983,0.040,0.000
10/02/1983,0.093,0.000
10/03/1983,0.097,0.000
10/04/1983,0.127,0.000
10/05/1983,0.326,0.000
10/06/1983,0.588,0.000
10/07/1983,0.613,0.000
10/08/1983,0.613,0.000
10/09/1983,0.621,0.000
10/10/1983,0.623,0.000
10/11/1983,0.628,0.000
10/12/1983,0.694,0.000
10/13/1983,1.010,0.000
10/14/1983,1.807,0.000
10/15/1983,1.807,0.000
10/16/1983,1.807,0.000
10/17/1983,1.807,0.000
10/18/1983,1.812,0.000
10/19/1983,2.167,0.000
10/20/1983,2.167,0.000
10/21/1983,2.167,0.000
10/22/1983,2.170,0.000
10/23/1983,2.291,0.000
10/24/1983,2.661,0.000
10/25/1983,2.665,0.000
10/26/1983,2.728,0.000
10/27/1983,2.791,0.000
10/28/1983,2.804,0.000
10/29/1983,2.822,0.000
10/30/1983,2.823,0.000
10/31/1983,2.823,0.000
11/01/1983,2.823,0.000
11/02/1983,2.871,0.000
11/03/1983,2.993,0.000
11/04/1983,3.087,0.001
11/05/1983,3.202,0.079
11/06/1983,3.239,0.059
11/07/1983,3.247,0.024
11/08/1983,3.247,0.007
11/09/1983,3.247,0.000
11/10/1983,3.266,0.000
11/11/1983,3.998,0.000
11/12/1983,4.322,0.049
11/13/1983,4.325,0.051
11/14/1983,4.327,0.052
11/15/1983,4.345,0.054
11/16/1983,4.905,0.039
11/17/1983,4.979,0.045
11/18/1983,5.008,0.073
11/19/1983,5.008,0.057
11/20/1983,5.034,0.021
11/21/1983,5.642,0.005
11/22/1983,5.642,0.001
11/23/1983,5.644,0.000
11/24/1983,5.754,0.000
11/25/1983,6.567,0.193
11/26/1983,6.644,0.241
11/27/1983,6.645,0.161
11/28/1983,6.761,0.150
11/29/1983,7.172,0.138
11/30/1983,7.172,0.126
12/01/1983,7.184,0.134
12/02/1983,7.185,0.135
12/03/1983,7.272,0.204
12/04/1983,7.447,0.285
12/05/1983,7.789,0.378
12/06/1983,7.804,0.326
12/07/1983,8.253,0.372
12/08/1983,8.290,0.411
12/09/1983,8.292,0.413
12/10/1983,8.319,0.429
12/11/1983,8.319,0.428
12/12/1983,8.344,0.433
12/13/1983,9.961,0.390
12/14/1983,11.744,0.374
12/15/1983,11.752,0.329
12/16/1983,11.759,0.305
12/17/1983,11.760,0.306
12/18/1983,11.761,0.308
12/19/1983,11.790,0.331
12/20/1983,11.791,0.332
12/21/1983,11.796,0.336
12/22/1983,12.202,0.675
12/23/1983,12.341,0.715
12/24/1983,12.383,0.737
12/25/1983,12.429,0.774
12/26/1983,12.439,0.780
12/27/1983,12.439,0.780
12/28/1983,12.449,0.785
12/29/1983,12.944,0.902
12/30/1983,12.949,0.905
12/31/1983,12.949,0.905
01/01/1984,12.950,0.905
01/02/1984,12.969,0.919
01/03/1984,12.970,0.919
01/04/1984,12.970,0.919
01/05/1984,12.970,0.894
01/06/1984,13.026,0.899
01/07/1984,13.050,0.913
01/08/1984,13.057,0.918
01/09/1984,13.119,1.008
01/10/1984,13.287,1.210
01/11/1984,13.523,1.570
01/12/1984,13.524,1.571
01/13/1984,13.525,1.572
01/14/1984,13.579,1.608
01/15/1984,13.604,1.640
01/16/1984,13.605,1.642
01/17/1984,13.614,1.650
01/18/1984,13.625,1.661
01/19/1984,13.753,1.858
01/20/1984,13.755,1.859
01/21/1984,13.755,1.859
01/22/1984,13.755,1.859
01/23/1984,13.758,1.864
01/24/1984,13.945,1.973
01/25/1984,14.114,1.771
01/26/1984,14.114,1.720
01/27/1984,14.115,1.697
01/28/1984,14.115,1.691
01/29/1984,14.116,1.692
01/30/1984,14.143,1.708
01/31/1984,14.337,1.994
02/01/1984,14.347,2.000
02/02/1984,14.347,2.000
02/03/1984,14.349,2.001
02/04/1984,14.482,1.726
02/05/1984,14.496,1.666
02/06/1984,14.635,1.814
02/07/1984,14.645,1.821
02/08/1984,14.652,1.828
02/09/1984,14.653,1.828
02/10/1984,14.654,1.829
02/11/1984,14.696,1.723
02/12/1984,14.787,1.514
02/13/1984,14.788,1.324
02/14/1984,14.848,1.094
02/15/1984,15.922,0.875
02/16/1984,16.438,0.814
02/17/1984,16.440,0.714
02/18/1984,16.537,0.637
02/19/1984,16.560,0.570
02/20/1984,16.754,0.517
02/21/1984,16.764,0.518
02/22/1984,16.784,0.533
02/23/1984,16.785,0.519
02/24/1984,16.853,0.455
02/25/1984,16.858,0.351
02/26/1984,17.015,0.439
02/27/1984,17.019,0.442
02/28/1984,17.272,0.631
02/29/1984,17.757,0.906
03/01/1984,17.786,0.928
03/02/1984,17.810,0.962
03/03/1984,17.848,1.008
03/04/1984,17.848,1.008
03/05/1984,17.857,1.013
03/06/1984,18.029,1.086
03/07/1984,18.033,1.090
03/08/1984,18.036,1.093
03/09/1984,18.179,1.288
03/10/1984,18.179,1.288
03/11/1984,18.180,1.290
03/12/1984,18.195,1.301
03/13/1984,18.285,1.370
03/14/1984,18.503,1.558
03/15/1984,18.503,1.558
03/16/1984,18.507,1.484
03/17/1984,18.533,1.323
03/18/1984,18.533,1.324
03/19/1984,18.579,1.331
03/20/1984,18.579,1.296
03/21/1984,18.585,0.893
03/22/1984,18.839,0.801
03/23/1984,18.889,0.808
03/24/1984,18.898,0.819
03/25/1984,18.898,0.813
03/26/1984,18.898,0.791
03/27/1984,18.898,0.790
03/28/1984,18.973,0.768
03/29/1984,19.839,1.800
03/30/1984,20.595,2.763
03/31/1984,20.621,2.774
04/01/1984,20.632,2.751
04/02/1984,20.633,2.482
04/03/1984,20.634,2.079
04/04/1984,20.695,1.496
04/05/1984,21.232,1.102
04/06/1984,22.235,0.762
04/07/1984,22.303,0.693
04/08/1984,22.304,0.658
04/09/1984,22.304,0.610
04/10/1984,22.304,0.549
04/11/1984,22.304,0.482
04/12/1984,22.304,0.352
04/13/1984,22.305,0.196
04/14/1984,22.521,0.122
04/15/1984,23.052,0.079
04/16/1984,23.298,0.052
04/17/1984,23.676,0.034
04/18/1984,23.804,0.019
04/19/1984,24.031,0.007
04/20/1984,24.346,0.003
04/21/1984,24.347,0.002
04/22/1984,24.347,0.002
04/23/1984,24.397,0.001
04/24/1984,24.587,0.001
04/25/1984,25.012,0.000
04/26/1984,25.039,0.000
04/27/1984,25.039,0.000
04/28/1984,25.042,0.000
04/29/1984,25.159,0.000
04/30/1984,25.172,0.000
05/01/1984,25.278,0.000
05/02/1984,25.279,0.000
05/03/1984,25.291,0.000
05/04/1984,26.187,0.000
05/05/1984,26.280,0.000
05/06/1984,26.286,0.000
05/07/1984,26.290,0.000
05/08/1984,26.439,0.000
05/09/1984,26.766,0.000
05/10/1984,26.825,0.000
05/11/1984,26.841,0.000
05/12/1984,27.372,0.000
05/13/1984,27.568,0.000
05/14/1984,28.141,0.000
05/15/1984,28.191,0.000
05/16/1984,28.242,0.000
05/17/1984,28.246,0.000
05/18/1984,28.246,0.000
05/19/1984,28.404,0.000
05/20/1984,28.468,0.000
05/21/1984,28.915,0.000
05/22/1984,28.921,0.000
05/23/1984,28.972,0.000
05/24/1984,29.408,0.000
05/25/1984,29.408,0.000
05/26/1984,29.436,0.000
05/27/1984,29.623,0.000
05/28/1984,30.233,0.000
05/29/1984,31.745,0.000
05/30/1984,32.135,0.000
05/31/1984,32.181,0.000
06/01/1984,32.181,0.000
06/02/1984,32.181,0.000
06/03/1984,32.219,0.000
06/04/1984,32.260,0.000
06/05/1984,32.261,0.000
06/06/1984,32.324,0.000
06/07/1984,32.389,0.000
06/08/1984,32.389,0.000
06/09/1984,32.391,0.000
06/10/1984,32.414,0.000
06/11/1984,32.414,0.000
06/12/1984,32.414,0.000
06/13/1984,32.418,0.000
06/14/1984,32.883,0.000
06/15/1984,32.886,0.000
06/16/1984,32.886,0.000
06/17/1984,32.892,0.000
06/18/1984,33.618,0.000
06/19/1984,34.305,0.000
06/20/1984,34.305,0.000
06/21/1984,34.305,0.000
06/22/1984,34.305,0.000
06/23/1984,34.308,0.000
06/24/1984,34.426,0.000
06/25/1984,35.025,0.000
06/26/1984,35.101,0.000
06/27/1984,35.106,0.000
06/28/1984,35.342,0.000
06/29/1984,35.377,0.000
06/30/1984,35.925,0.000
07/01/1984,36.125,0.000
07/02/1984,36.517,0.000
07/03/1984,36.542,0.000
07/04/1984,36.622,0.000
07/05/1984,36.992,0.000